AGROMETEOROLOŠKI PORTAL

vinorodna pokrajina

Temelj dobrega kmetovanja

Pregled podatkov za lokacijo MALKOVEC ARSO, meteorološka postaja 120

Pregled senzorjev na lokaciji

ID Ime Zadnja
vrednost
Datum in čas
meritve
(lokalni čas)
Tip
senzorja
6037 Zračni tlak (hPa) 968 hPa 27.1.2023 03:00 ARSO
2731 Sončno sevanje (W/m2) 0 W/m2 27.1.2023 03:00 ARSO
2744 Relativna zračna vlaga (2 m) (% RH) 77 % RH 27.1.2023 03:00 ARSO
2743 Temperatura (2 m) (°C) -0,6 °C 27.1.2023 03:00 ARSO
2748 Smer vetra (2 m) (°) 55 ° 27.1.2023 03:00 ARSO
2749 Hitrost vetra (2 m) (km/h) 8 km/h 27.1.2023 03:00 ARSO

Pregled podatkov zadnjih 24 ur

Zap.
št.
Datum in čas
(lokalni čas)
MALKOVEC ARSO
Zračni
tlak
Sončno
sevanje
Relativna
zračna
vlaga
(2
m)
Temperatura
(2
m)
Smer
vetra
(2
m)
Hitrost
vetra
(2
m)
1 27.1.2023 03:00 968,2 0 77 -0,6 55 8
2 27.1.2023 02:30 968,4 0 78 -0,6 56 9
3 27.1.2023 02:00 968,5 0 80 -0,7 46 8
4 27.1.2023 01:30 968,5 0 82 -0,8 52 6
5 27.1.2023 01:00 968,4 0 81 -0,8 69 5
6 27.1.2023 00:30 968,6 0 82 -0,8 57 5
7 27.1.2023 00:00 968,8 0 84 -0,9 66 4
8 26.1.2023 23:30 969,1 0 84 -0,9 117 5
9 26.1.2023 23:00 969,2 0 82 -0,5 60 4
10 26.1.2023 22:30 969,3 0 82 -0,4 48 5
11 26.1.2023 22:00 969,3 0 81 -0,3 48 9
12 26.1.2023 21:30 969,3 0 82 -0,2 53 9
13 26.1.2023 21:00 969,4 0 83 -0,2 47 7
14 26.1.2023 20:30 969,5 0 81 -0,1 54 7
15 26.1.2023 20:00 969,5 0 80 -0,1 52 8
16 26.1.2023 19:30 969,5 0 79 -0,1 52 8
17 26.1.2023 19:00 969,4 0 79 0 44 9
18 26.1.2023 18:30 969,4 0 79 0 33 12
19 26.1.2023 18:00 969,5 0 79 0 37 9
20 26.1.2023 17:30 969,5 0 79 0 36 8
21 26.1.2023 17:00 969,5 3 77 0,1 33 6
22 26.1.2023 16:30 969,5 13 75 0,3 45 7
23 26.1.2023 16:00 969,6 26 75 0,4 45 6
24 26.1.2023 15:30 969,6 41 75 0,5 54 7
25 26.1.2023 15:00 969,5 59 76 0,6 46 7
26 26.1.2023 14:30 969,5 84 76 0,6 30 12
27 26.1.2023 14:00 969,8 89 76 0,8 31 9
28 26.1.2023 13:30 970,2 91 76 0,8 40 6
29 26.1.2023 13:00 970,6 94 75 0,8 50 5
30 26.1.2023 12:30 971 110 74 0,7 51 8
31 26.1.2023 12:00 971,3 127 77 0,6 39 7
32 26.1.2023 11:30 971,6 98 78 0,3 29 6
33 26.1.2023 11:00 972 45 78 0,2 39 6
34 26.1.2023 10:30 972,1 47 78 0,2 42 5
35 26.1.2023 10:00 972,2 42 79 0,1 43 7
36 26.1.2023 09:30 972,2 35 79 0,1 49 8
37 26.1.2023 09:00 972,3 20 79 0,1 53 7
38 26.1.2023 08:30 972,3 11 80 0 62 6
39 26.1.2023 08:00 972,3 4 80 0,1 65 7
40 26.1.2023 07:30 972,3 0 80 0,1 59 8
41 26.1.2023 07:00 972,4 0 81 0,1 65 7
42 26.1.2023 06:30 972,4 0 81 0,1 82 6
43 26.1.2023 06:00 972,4 0 82 0,1 68 6
44 26.1.2023 05:30 972,7 0 84 0,1 74 5
45 26.1.2023 05:00 973 0 85 0,1 62 7
46 26.1.2023 04:30 973,2 0 85 0,2 106 7
47 26.1.2023 04:00 973,5 0 85 0,2 66 7
48 26.1.2023 03:30 973,9 0 87 0,2 54 6